Regional Weather Roundup
Issued by NWS

Home | Current Version | Previous Version | Graphics & Text | Print | Product List | Glossary On
Versions: 1 2 3 4 5 6 7 8 9 10 11 12 13 14 15 16 17 18 19 20 21 22 23 24 25 26 27
000
ASUS45 KTFX 271910
RWRMT
MONTANA REGIONAL WEATHER ROUNDUP
NATIONAL WEATHER SERVICE GREAT FALLS MT
100 PM MDT TUE SEP 27 2016

NOTE: "FAIR" INDICATES FEW OR NO CLOUDS BELOW 12000 FEET WITH NO
SIGNIFICANT WEATHER AND/OR OBSTRUCTIONS TO VISIBILITY.

MTZ001>007-043-272000-
WEST OF THE DIVIDE

CITY           SKY/WX    TMP DP  RH WIND       PRES   REMARKS
KALISPELL      SUNNY     71  47  42 S8        30.04F
MISSOULA       SUNNY     69  45  41 CALM      30.11F
BUTTE          SUNNY     74  38  27 CALM      30.20F
MULLAN PASS    SUNNY     63  43  48 VRB7      30.21F
ANACONDA         N/A     75  36  23 SW3       30.15F
DEER LODGE       N/A     75  43  31 E5        30.16F
EUREKA           N/A     81  46  30 SW7       29.99S
HAMILTON         N/A     70  50  49 NW6       30.10F
LIBBY            N/A     70  50  49 CALM      30.01F
RONAN            N/A     78  44  29 SE5       30.10F
$$

MTZ008-052>055-272000-
SOUTHWEST MONTANA

CITY           SKY/WX    TMP DP  RH WIND       PRES   REMARKS
BOZEMAN        SUNNY     72  44  36 CALM      30.16F
DILLON         SUNNY     72  40  31 CALM      30.19F
W YELLOWSTONE  SUNNY     64  39  39 CALM      30.30F
ENNIS          SUNNY     75  34  22 CALM      30.25F
THREE FORKS      N/A     72  64  75 SE1       30.12F
TWIN BRIDGES     N/A     70  42  36 S3        30.16F
$$

MTZ009-010-012-014-046-048-049-054-272000-
EAST SLOPES AND CENTRAL MONTANA

CITY           SKY/WX    TMP DP  RH WIND       PRES   REMARKS
CUT BANK       SUNNY     81  39  22 W14G25    30.01S
GREAT FALLS    SUNNY     81  41  24 SW20      30.02F
MALMSTROM AFB  SUNNY     80  42  26 SW15G26   30.02F
HELENA         SUNNY     71  44  37 CALM      30.10F
AUGUSTA          N/A     80  37  21 W13G25    30.05F
BOWMANS CRNR     N/A     75  42  31 S20G29    30.04F
CHOTEAU          N/A     82  39  21 VRB5G14   30.04S
CONRAD           N/A     83  42  23 S14       30.03F
FAIRFIELD        N/A     79  39  23 SW10G22   30.02F
POWER            N/A     80  38  22 SW13      30.02F
RAYNESFORD       N/A     79  37  22 W21G29    30.05F
$$

MTZ011-013-016-021-045-047-050-051-272000-
NORTH CENTRAL MONTANA

CITY           SKY/WX    TMP DP  RH WIND       PRES   REMARKS
HAVRE          SUNNY     80  46  30 SW17      29.94F
LEWISTOWN      SUNNY     78  41  26 NW5       30.06F
N BAR RANCH      N/A     79  37  22 NW12G20   30.10F
CHINOOK          N/A     82  45  26 W14       29.92F
DENTON           N/A     80  39  22 W10       29.99F
GEYSER           N/A     80  37  21 W13G25    30.05F
GRASS RANGE      N/A     78  38  23 NW14G20   30.01F
JUDITH GAP       N/A     77  38  24 NW17G25   30.09F
ROY              N/A     80  43  27 MISG      30.02S
STANFORD         N/A     78  34  20 NW16G22   30.08S
WINIFRED         N/A     79  43  27 MISG      30.03S
$$

MTZ017>020-022>027-061-062-272000-
NORTHEAST MONTANA

CITY           SKY/WX    TMP DP  RH WIND       PRES   REMARKS
GLASGOW        SUNNY     73  50  44 SW6       29.93F
JORDAN           N/A     83  44  25 W15       29.96S
SIDNEY         SUNNY     72  52  49 S9        29.94F
WOLF POINT     SUNNY     73  52  47 SW8       29.93F
PLENTYWOOD       N/A     72  48  43 S9        29.93F
POPLAR           N/A     72  52  49 W8        29.93F
SCOBEY           N/A     79  47  32 SW7       29.91F
$$

MTZ028>42-056>058-272000-
SOUTHCENTRAL AND SOUTHEAST MONTANA

CITY           SKY/WX    TMP DP  RH WIND       PRES   REMARKS
BAKER          SUNNY     74  50  42 W12       30.00F
BILLINGS       SUNNY     77  46  33 SW15      30.06F
LIVINGSTON     SUNNY     79  40  24 NW12      30.13F
MILES CITY     SUNNY     77  50  38 SW7       29.99F
BIG TIMBER     SUNNY     79  37  22 W20G26    30.13F
EKALAKA          N/A     74  47  38 W3        30.01F
FORSYTH          N/A     77  48  36 W6        30.00F
HARLOWTON        N/A     78  39  24 W22G28    30.09F
LAUREL           N/A     78  46  32 S6        30.06F
ROUNDUP          N/A     78  46  32 S9        29.95F
$$

REGIONAL REPORTS...DAKOTAS

CITY           SKY/WX    TMP DP  RH WIND       PRES   REMARKS
WILLISTON      SUNNY     72  51  47 SE6       29.94F
MINOT          SUNNY     67  38  34 CALM      29.95F
DICKINSON      SUNNY     73  46  38 VRB6      29.95F
BEACH            N/A     73  50  43 W6        30.00S
CROSBY           N/A     72  43  35 S7        29.95F
WATFORD CITY     N/A     73  48  40 W7        29.94F
BISMARCK       SUNNY     70  40  33 NW9       29.96F
GRAND FORKS    MOSUNNY   59  45  59 N17G24    29.89F
FARGO          SUNNY     64  40  41 N17       29.86F
BUFFALO SD       N/A     79  47  32 W8        29.94F
RAPID CITY     SUNNY     80  43  26 N9        30.02F
$$

REGIONAL REPORTS...WYOMING/IDAHO/WASHINGTON

CITY           SKY/WX    TMP DP  RH WIND       PRES   REMARKS
GILLETTE       SUNNY     77  41  27 NW12G22   30.10F
SHERIDAN       SUNNY     82  41  23 N10       30.08F
BUFFALO WY     SUNNY     80  35  19 N9        30.15F
CODY           SUNNY     73  52  46 NE8       30.17F
YELLOWSTONE LA   N/A     58  42  55 VRB3      30.38F
IDAHO FALLS    SUNNY     67  45  45 CALM      30.22F
SALMON         SUNNY     64  43  45 N3        30.18F
BOISE          SUNNY     76  43  30 W5        30.09F
SPOKANE        MOSUNNY   75  44  33 SW10      30.05F
$$

REGIONAL REPORTS...ALBERTA

CITY           SKY/WX    TMP DP  RH WIND       PRES   REMARKS
EDMONTON       PTSUNNY   54  32  43 W10G23    30.04R
CALGARY        MOSUNNY   57  37  47 N25G33    30.07R
LETHBRIDGE     MOSUNNY   82  45  26 W22G36    29.93S
MEDICINE HAT   MOSUNNY   84  45  24 W24G31    29.85R
WATERTON GATE    N/A     77  43  29 SW10G20     N/A
CARDSTON         N/A     77  43  29 W10G18      N/A
MILK RIVER       N/A     82  39  21 W17         N/A
ONEFOUR          N/A     82  37  20 W23G31      N/A
$$

REGIONAL REPORTS...SASKATCHEWAN

CITY           SKY/WX    TMP DP  RH WIND       PRES   REMARKS
SWIFT CURRENT  SUNNY     79  45  29 W13G21    29.86F
SASKATOON      MOSUNNY   72  48  43 S15       29.82F
CYPRESS HILLS    N/A     77  39  25 W14G22      N/A
VAL MARIE        N/A     79  46  31 SW10        N/A
ROCKGLEN         N/A     73  45  35 W10         N/A
$$




USA.gov is the U.S. government's official web portal to all federal, state and local government web resources and services.